Hourly Data Report for September 19, 2017

All times are specified in Local Standard Time (LST). Add 1 hour to adjust for Daylight Saving Time where and when it is observed.

EAST POINT (AUT)
PRINCE EDWARD ISLAND

46°27'36.000" N
61°59'18.000" W
7.70 m
8300418
71412
WEP

Download Data

Hourly Data (September 2017)
Hourly Data Report for September 19, 2017
Temp Definition
°C
Dew Point Temp Definition
°C
Rel Hum Definition
%
Wind Dir Definition
10's deg

Wind Spd Definition
km/h
Visibility Definition
km
Stn Press Definition
kPa
Hmdx Definition


Wind Chill Definition


Weather Definition


TIME
00:00 17.2 15.9 92 19 14   102.50     LegendNANA
01:00 16.8 15.7 93 18 16   102.51     LegendNANA
02:00 16.6 15.5 93 18 16   102.48     LegendNANA
03:00 16.7 15.5 93 17 17   102.46     LegendNANA
04:00 16.6 15.4 93 17 18   102.47     LegendNANA
05:00 16.4 15.3 93 18 16   102.46     LegendNANA
06:00 16.5 15.3 93 17 16   102.49     LegendNANA
07:00 16.3 15.1 93 17 16   102.50     LegendNANA
08:00 16.9 15.7 93 17 12   102.52     LegendNANA
09:00 17.7 16.5 93 17 8   102.51     LegendNANA
10:00 18.6 17.0 91 16 11   102.52     LegendNANA
11:00 18.4 17.1 92 16 13   102.49     LegendNANA
12:00 18.1 17.0 93 16 14   102.44     LegendNANA
13:00 18.3 17.2 94 16 12   102.37     LegendNANA
14:00 19.3 17.5 89 16 20   102.32     LegendNANA
15:00 19.3 17.3 88 16 22   102.27     LegendNANA
16:00 19.1 17.4 90 16 22   102.23     LegendNANA
17:00 18.8 17.2 91 15 21   102.19     LegendNANA
18:00 18.5 17.0 91 15 21   102.16     LegendNANA
19:00 18.1 16.8 92 15 22   102.18     LegendNANA
20:00 17.7 16.3 92 15 23   102.18     LegendNANA
21:00 17.7 16.4 92 16 21   102.18     LegendNANA
22:00 17.6 16.5 93 17 18   102.18     LegendNANA
23:00 17.6 16.4 93 17 13   102.14     LegendNANA

Notes on Data Quality.

Legend

  • E = Estimated
  • M = Missing
  • NA = Not Available
  • ‡ = Partner data that is not subject to review by the National Climate Archives
Date modified: